WB4FAY-4 Weather Reports


Display with metric or nautical units.
time (UTC)temp
F
wind
direction
speed
MPH
gust
MPH
rain 1hr
in
rain 24hr
in
rain mn
in
humidity
%
barometer
mb
20180719034617 78 0 0.0 0.0 0.00 0.00 0.27 85 1014.5
20180719033617 78 0 0.0 0.0 0.00 0.00 0.27 85 1014.2
20180719033117 78 0 0.0 0.0 0.00 0.00 0.27 85 1014.2
20180719032617 78 0 0.0 0.0 0.00 0.00 0.27 85 1014.4
20180719031617 78 0 0.0 0.0 0.00 0.00 0.27 85 1014.1
20180719031117 78 0 0.0 0.0 0.00 0.00 0.27 85 1014.6
20180719030617 78 0 0.0 0.0 0.00 0.00 0.27 85 1014.5
20180719030117 78 0 0.0 0.0 0.00 0.00 0.27 85 1014.6
20180719025617 78 82 0.0 1.0 0.00 0.00 0.27 85 1014.6
20180719025117 78 89 0.0 2.0 0.00 0.00 0.27 86 1014.5
20180719024617 78 0 1.0 0.0 0.00 0.00 0.27 86 1014.5
20180719024117 78 0 0.0 0.0 0.00 0.00 0.27 86 1014.5
20180719023617 78 0 0.0 0.0 0.00 0.00 0.27 85 1014.4
20180719022116 78 0 0.0 0.0 0.00 0.00 0.27 85 1014.1
20180719021617 78 0 0.0 0.0 0.00 0.00 0.27 85 1014.0
20180719021117 78 0 0.0 0.0 0.00 0.00 0.27 85 1014.1
20180719020617 78 0 0.0 0.0 0.00 0.00 0.27 85 1014.1
20180719020117 79 0 0.0 0.0 0.00 0.00 0.27 84 1014.1
20180719015617 79 0 0.0 0.0 0.00 0.00 0.27 84 1014.0
20180719015117 79 0 0.0 0.0 0.00 0.00 0.27 83 1013.9
20180719014617 79 0 0.0 0.0 0.00 0.00 0.27 83 1013.9
20180719014117 79 0 0.0 0.0 0.00 0.00 0.27 82 1014.0
20180719013117 80 0 0.0 0.0 0.00 0.00 0.27 82 1013.9
20180719012617 80 0 0.0 0.0 0.00 0.00 0.27 81 1013.8
20180719012117 80 0 0.0 0.0 0.00 0.00 0.27 81 1013.6
20180719011617 80 0 0.0 0.0 0.00 0.00 0.27 81 1013.6
20180719011117 80 0 0.0 0.0 0.00 0.00 0.27 81 1013.6
20180719010617 80 0 0.0 0.0 0.00 0.00 0.27 80 1013.5
20180719010117 80 0 0.0 0.0 0.00 0.00 0.27 81 1013.5
20180719005616 80 0 0.0 0.0 0.00 0.00 0.27 81 1013.4
20180719004617 80 51 0.0 2.0 0.00 0.00 0.27 81 1013.5
20180719004117 80 104 1.0 3.0 0.00 0.00 0.27 82 1013.5
20180719003617 80 0 0.0 0.0 0.00 0.00 0.27 82 1013.3
20180719003117 81 0 0.0 0.0 0.00 0.00 0.27 82 1013.2
20180719001617 81 0 0.0 0.0 0.00 0.00 0.27 81 1013.2
20180719001117 81 0 0.0 0.0 0.00 0.00 0.27 81 1013.1
20180719000617 81 0 0.0 0.0 0.00 0.00 0.27 80 1013.0
20180719000117 81 0 0.0 0.0 0.00 0.00 0.27 79 1013.0
20180718235617 81 0 0.0 0.0 0.00 0.00 0.27 80 1013.0
20180718234617 82 0 0.0 0.0 0.00 0.00 0.27 80 1013.0
20180718233617 82 0 0.0 0.0 0.00 0.00 0.27 80 1012.9
20180718233117 82 0 0.0 0.0 0.00 0.00 0.27 79 1012.9
20180718232617 82 0 0.0 0.0 0.00 0.00 0.27 78 1012.9
20180718232117 83 0 0.0 0.0 0.00 0.00 0.27 78 1012.8
20180718231617 83 0 0.0 0.0 0.00 0.00 0.27 77 1012.7
20180718231117 83 0 0.0 0.0 0.00 0.00 0.27 76 1012.7
20180718230617 83 0 0.0 0.0 0.00 0.00 0.27 75 1012.9
20180718230117 83 0 0.0 0.0 0.00 0.00 0.27 74 1013.1
20180718225617 83 0 0.0 0.0 0.00 0.00 0.27 73 1013.1
20180718225117 84 0 0.0 0.0 0.00 0.00 0.27 71 1013.1
20180718224617 84 0 0.0 0.0 0.00 0.00 0.27 71 1013.2
20180718224116 84 0 0.0 0.0 0.00 0.00 0.27 70 1013.1
20180718223617 84 0 0.0 0.0 0.00 0.00 0.27 68 1013.1
20180718223117 85 0 0.0 0.0 0.00 0.00 0.27 65 1013.1
20180718222617 85 0 0.0 0.0 0.00 0.00 0.27 62 1013.0
20180718222117 86 0 0.0 0.0 0.00 0.00 0.27 61 1013.0
20180718221617 86 86 0.0 4.0 0.00 0.00 0.27 59 1013.1
20180718221117 85 69 0.0 2.0 0.00 0.00 0.27 60 1013.1
20180718220617 85 240 0.0 0.0 0.00 0.00 0.27 61 1013.1
20180718220117 84 0 0.0 0.0 0.00 0.00 0.27 63 1013.0
20180718215617 84 0 0.0 0.0 0.00 0.00 0.27 62 1013.1
20180718215117 83 319 0.0 1.0 0.00 0.00 0.27 65 1013.1
20180718214617 83 326 0.0 2.0 0.00 0.00 0.27 66 1013.2
20180718214117 83 0 0.0 0.0 0.00 0.00 0.27 67 1013.2
20180718213617 82 217 0.0 2.0 0.00 0.00 0.27 68 1013.2
20180718212617 81 312 0.0 3.0 0.00 0.00 0.27 73 1013.2
20180718212117 80 264 0.0 1.0 0.00 0.00 0.27 76 1013.2
20180718211617 80 296 0.0 3.0 0.00 0.00 0.27 79 1013.4
20180718211117 79 322 0.0 2.0 0.00 0.00 0.27 81 1013.3
20180718210617 78 186 0.0 2.0 0.00 0.00 0.27 81 1013.3
20180718210117 78 311 0.0 2.0 0.00 0.00 0.27 82 1013.4
20180718205617 78 185 1.0 2.0 0.00 0.00 0.27 83 1013.6
20180718205117 78 224 0.0 1.0 0.00 0.00 0.27 82 1013.6
20180718204117 78 209 0.0 1.0 0.00 0.00 0.27 82 1013.9
20180718203117 78 72 0.0 2.0 0.00 0.00 0.27 82 1014.1
20180718202617 78 0 0.0 0.0 0.00 0.00 0.27 82 1014.1
20180718202117 78 109 0.0 3.0 0.00 0.00 0.27 80 1014.1
20180718201617 78 291 1.0 2.0 0.00 0.00 0.27 80 1014.1
20180718201117 79 200 2.0 3.0 0.00 0.00 0.27 79 1014.1
20180718200617 80 182 1.0 6.0 0.00 0.00 0.27 77 1014.1
20180718195617 84 188 2.0 5.0 0.00 0.00 0.24 70 1014.1
20180718195117 87 8 0.0 3.0 0.00 0.00 0.13 65 1014.1
20180718194617 88 148 2.0 1.0 0.00 0.00 0.00 59 1013.9
20180718194117 88 0 0.0 0.0 0.00 0.00 0.00 57 1013.7
20180718193617 89 11 0.0 4.0 0.00 0.00 0.00 54 1013.8
20180718193117 89 0 0.0 0.0 0.00 0.00 0.00 53 1014.0
20180718192617 89 298 0.0 2.0 0.00 0.00 0.00 51 1014.1
20180718192117 90 330 0.0 4.0 0.00 0.00 0.00 52 1014.1
20180718191617 90 263 2.0 6.0 0.00 0.00 0.00 52 1014.1
20180718191117 90 322 0.0 5.0 0.00 0.00 0.00 50 1014.2
20180718190617 90 360 3.0 5.0 0.00 0.00 0.00 48 1014.2
20180718190117 89 17 4.0 9.0 0.00 0.00 0.00 52 1014.5
20180718185617 89 0 0.0 0.0 0.00 0.00 0.00 54 1014.4
20180718184617 89 27 0.0 3.0 0.00 0.00 0.00 54 1014.6
20180718184118 90 272 1.0 8.0 0.00 0.00 0.00 51 1014.7
20180718183616 90 342 1.0 4.0 0.00 0.00 0.00 50 1014.7
20180718183117 90 3 2.0 5.0 0.00 0.00 0.00 49 1014.8
20180718182617 90 352 0.0 4.0 0.00 0.00 0.00 51 1014.7
20180718182117 89 7 1.0 6.0 0.00 0.00 0.00 50 1014.8
20180718181617 89 83 3.0 2.0 0.00 0.00 0.00 52 1014.8
20180718181117 88 0 2.0 0.0 0.00 0.00 0.00 54 1014.8
20180718180617 88 0 0.0 0.0 0.00 0.00 0.00 55 1014.9
20180718180117 88 0 0.0 0.0 0.00 0.00 0.00 58 1014.9
20180718175617 88 0 0.0 0.0 0.00 0.00 0.00 55 1015.0
20180718175117 87 332 0.0 3.0 0.00 0.00 0.00 56 1014.9
20180718174617 87 280 1.0 1.0 0.00 0.00 0.00 58 1014.9
20180718174117 87 0 0.0 0.0 0.00 0.00 0.00 61 1014.9
20180718173617 86 0 0.0 0.0 0.00 0.00 0.00 60 1015.0
20180718173117 86 318 0.0 3.0 0.00 0.00 0.00 60 1015.0
20180718172617 86 0 0.0 0.0 0.00 0.00 0.00 59 1015.0
20180718171117 87 0 0.0 0.0 0.00 0.00 0.00 60 1015.2
20180718170616 87 0 0.0 0.0 0.00 0.00 0.00 60 1015.2
20180718170117 87 292 0.0 2.0 0.00 0.00 0.00 60 1015.2
20180718165616 87 0 0.0 0.0 0.00 0.00 0.00 60 1015.4
20180718165117 87 0 0.0 0.0 0.00 0.00 0.00 58 1015.3
20180718164617 87 0 0.0 0.0 0.00 0.00 0.00 58 1015.4
20180718164117 87 0 0.0 0.0 0.00 0.00 0.00 58 1015.4
20180718163617 87 92 0.0 3.0 0.00 0.00 0.00 59 1015.5
20180718163117 86 68 2.0 3.0 0.00 0.00 0.00 59 1015.5
20180718162617 86 0 0.0 0.0 0.00 0.00 0.00 64 1015.5
20180718162117 85 0 0.0 0.0 0.00 0.00 0.00 64 1015.8
20180718161617 86 48 0.0 1.0 0.00 0.00 0.00 64 1015.7
20180718161117 86 311 0.0 3.0 0.00 0.00 0.00 63 1015.8
20180718160617 86 193 1.0 2.0 0.00 0.00 0.00 61 1015.8
20180718160117 86 202 0.0 3.0 0.00 0.00 0.00 60 1015.8
20180718155618 86 195 2.0 4.0 0.00 0.00 0.00 61 1015.9
20180718155117 86 0 0.0 0.0 0.00 0.00 0.00 61 1015.9
20180718154617 86 0 0.0 0.0 0.00 0.00 0.00 61 1015.9
20180718154117 86 0 0.0 0.0 0.00 0.00 0.00 60 1015.9
20180718153617 86 8 0.0 1.0 0.00 0.00 0.00 61 1015.9
20180718153117 86 346 1.0 2.0 0.00 0.00 0.00 61 1015.9
20180718152617 86 44 0.0 4.0 0.00 0.00 0.00 63 1015.9
20180718151617 85 17 0.0 1.0 0.00 0.00 0.00 65 1016.0
20180718151117 84 157 1.0 1.0 0.00 0.00 0.00 67 1015.9
20180718150617 84 44 0.0 1.0 0.00 0.00 0.00 67 1016.0
20180718150117 84 80 0.0 2.0 0.00 0.00 0.00 68 1016.0
20180718145617 83 79 0.0 5.0 0.00 0.00 0.00 67 1016.1
20180718145117 83 7 1.0 4.0 0.00 0.00 0.00 68 1016.0
20180718144617 83 72 2.0 5.0 0.00 0.00 0.00 69 1015.9
20180718144117 83 72 1.0 4.0 0.00 0.00 0.00 70 1015.9
20180718143617 82 123 0.0 4.0 0.00 0.00 0.00 71 1015.9
20180718143117 82 165 1.0 3.0 0.00 0.00 0.00 71 1015.8
20180718142617 81 69 0.0 2.0 0.00 0.00 0.00 72 1015.9
20180718142117 81 275 0.0 2.0 0.00 0.00 0.00 74 1015.9
20180718141616 81 0 0.0 0.0 0.00 0.00 0.00 75 1016.0
20180718141117 80 79 0.0 2.0 0.00 0.00 0.00 75 1016.0
20180718140617 80 110 0.0 3.0 0.00 0.00 0.00 76 1016.0
20180718140117 80 250 1.0 2.0 0.00 0.00 0.00 77 1016.1
20180718135617 79 0 0.0 0.0 0.00 0.00 0.00 78 1016.1
20180718135117 79 0 0.0 0.0 0.00 0.00 0.00 78 1016.0
20180718134617 79 193 0.0 0.0 0.00 0.00 0.00 78 1016.1
20180718134117 79 202 0.0 3.0 0.00 0.00 0.00 78 1016.1
20180718133617 78 193 0.0 3.0 0.00 0.00 0.00 80 1016.1
20180718132617 78 0 0.0 0.0 0.00 0.00 0.00 81 1016.1
20180718132117 77 0 0.0 0.0 0.00 0.00 0.00 82 1016.0
20180718131617 77 0 0.0 0.0 0.00 0.00 0.00 83 1016.1
20180718131116 77 0 0.0 0.0 0.00 0.00 0.00 84 1016.1
20180718130617 76 0 0.0 0.0 0.00 0.00 0.00 85 1016.1
20180718130117 76 0 0.0 0.0 0.00 0.00 0.00 85 1016.0
20180718125617 76 0 0.0 0.0 0.00 0.00 0.00 85 1016.1
20180718125117 76 0 0.0 0.0 0.00 0.00 0.00 86 1016.1
20180718124617 76 0 0.0 0.0 0.00 0.00 0.00 86 1016.2
20180718124117 76 0 0.0 0.0 0.00 0.00 0.00 86 1016.1
20180718123617 76 224 0.0 1.0 0.00 0.00 0.00 87 1016.1
20180718123117 76 0 0.0 0.0 0.00 0.00 0.00 88 1016.1
20180718122117 75 0 0.0 0.0 0.00 0.00 0.00 88 1016.1
20180718121617 75 0 0.0 0.0 0.00 0.00 0.00 88 1016.1
20180718120617 75 0 0.0 0.0 0.00 0.00 0.00 88 1016.0
20180718120116 75 0 0.0 0.0 0.00 0.00 0.00 89 1016.1
20180718115617 75 0 0.0 0.0 0.00 0.00 0.00 89 1016.1
20180718115117 75 0 0.0 0.0 0.00 0.00 0.00 89 1016.1
20180718114617 75 0 0.0 0.0 0.00 0.00 0.00 89 1016.2
20180718114117 75 0 0.0 0.0 0.00 0.00 0.00 88 1016.1
20180718113617 75 0 0.0 0.0 0.00 0.00 0.00 88 1016.1
20180718112617 75 0 0.0 0.0 0.00 0.00 0.00 88 1016.2
20180718112117 74 0 0.0 0.0 0.00 0.00 0.00 88 1016.1
20180718111117 75 0 0.0 0.0 0.00 0.00 0.00 88 1016.0
20180718110617 75 0 0.0 0.0 0.00 0.00 0.00 88 1016.0
20180718110117 74 0 0.0 0.0 0.00 0.00 0.00 88 1016.1
20180718105617 74 0 0.0 0.0 0.00 0.00 0.00 88 1016.0
20180718104617 74 0 0.0 0.0 0.00 0.00 0.00 88 1015.9
20180718104117 74 0 0.0 0.0 0.00 0.00 0.00 88 1015.9
20180718103617 74 0 0.0 0.0 0.00 0.00 0.00 88 1015.8
20180718103117 74 0 0.0 0.0 0.00 0.00 0.00 88 1015.8
20180718102617 74 0 0.0 0.0 0.00 0.00 0.00 88 1015.7
20180718102117 74 0 0.0 0.0 0.00 0.00 0.00 88 1015.6
20180718101117 74 0 0.0 0.0 0.00 0.00 0.00 88 1015.5
20180718100617 74 0 0.0 0.0 0.00 0.00 0.00 88 1015.4
20180718100117 74 0 0.0 0.0 0.00 0.00 0.00 88 1015.4
20180718095617 74 0 0.0 0.0 0.00 0.00 0.00 88 1015.2
20180718094617 75 0 0.0 0.0 0.00 0.00 0.00 87 1015.0
20180718094117 75 0 0.0 0.0 0.00 0.00 0.00 87 1014.9
20180718093617 75 0 0.0 0.0 0.00 0.00 0.00 87 1014.9
20180718092116 75 0 0.0 0.0 0.00 0.00 0.00 87 1014.8
20180718091617 75 0 0.0 0.0 0.00 0.00 0.00 87 1014.8
20180718091117 75 0 0.0 0.0 0.00 0.00 0.00 87 1014.9
20180718090117 75 0 0.0 0.0 0.00 0.00 0.00 86 1014.9
20180718085617 75 0 0.0 0.0 0.00 0.00 0.00 86 1014.9
20180718084617 75 0 0.0 0.0 0.00 0.00 0.00 86 1014.9
20180718083617 75 0 0.0 0.0 0.00 0.00 0.00 86 1014.9
20180718083117 75 0 0.0 0.0 0.00 0.00 0.00 85 1014.8
20180718082617 75 0 0.0 0.0 0.00 0.00 0.00 85 1014.8
20180718082118 75 0 0.0 0.0 0.00 0.00 0.00 85 1014.9
20180718081617 75 0 0.0 0.0 0.00 0.00 0.00 85 1014.9
20180718081117 76 0 0.0 0.0 0.00 0.00 0.00 85 1014.9
20180718080617 76 0 0.0 0.0 0.00 0.00 0.00 84 1014.9
20180718080117 76 0 0.0 0.0 0.00 0.00 0.00 84 1014.9
20180718075617 76 0 0.0 0.0 0.00 0.00 0.00 84 1015.0
20180718075117 76 0 0.0 0.0 0.00 0.00 0.00 84 1014.9
20180718074617 76 0 0.0 0.0 0.00 0.00 0.00 84 1014.9
20180718074117 76 0 0.0 0.0 0.00 0.00 0.00 83 1015.0
20180718073617 76 0 0.0 0.0 0.00 0.00 0.00 83 1015.0
20180718073117 76 0 0.0 0.0 0.00 0.00 0.00 83 1015.0
20180718072617 77 0 0.0 0.0 0.00 0.00 0.00 83 1014.9
20180718072117 77 0 0.0 0.0 0.00 0.00 0.00 82 1014.9
20180718071617 77 0 0.0 0.0 0.00 0.00 0.00 82 1014.9
20180718071117 77 0 0.0 0.0 0.00 0.00 0.00 82 1015.0
20180718070617 77 0 0.0 0.0 0.00 0.00 0.00 81 1015.0
20180718070117 77 0 0.0 0.0 0.00 0.00 0.00 81 1015.1
20180718065617 77 0 0.0 0.0 0.00 0.00 0.00 81 1015.1
20180718065117 77 0 0.0 0.0 0.00 0.00 0.00 81 1015.2
20180718064617 77 0 0.0 0.0 0.00 0.00 0.00 81 1015.2
20180718064127 77 0 0.0 0.0 0.00 0.00 0.00 82 1015.3
20180718063617 78 267 0.0 2.0 0.00 0.00 0.00 82 1015.3
20180718063117 78 281 0.0 2.0 0.00 0.00 0.00 82 1015.4
20180718062617 78 234 1.0 1.0 0.00 0.00 0.00 81 1015.3
20180718062116 78 301 0.0 2.0 0.00 0.00 0.00 81 1015.3
20180718061117 78 291 0.0 5.0 0.00 0.00 0.00 80 1015.3
20180718060616 78 32 1.0 4.0 0.00 0.00 0.00 80 1015.2
20180718055617 79 340 1.0 4.0 0.00 0.00 0.00 80 1015.3
20180718055117 79 278 0.0 6.0 0.00 0.00 0.00 80 1015.4
20180718054117 79 350 1.0 6.0 0.00 0.00 0.00 80 1015.5
20180718053617 79 356 3.0 7.0 0.00 0.00 0.00 81 1015.5
20180718053117 79 329 2.0 9.0 0.00 0.00 0.00 82 1015.7
20180718052617 79 342 4.0 5.0 0.00 0.00 0.00 83 1015.8
20180718052116 79 337 2.0 5.0 0.00 0.00 0.00 84 1015.8
20180718051617 79 329 3.0 8.0 0.00 0.00 0.00 85 1015.9
20180718051117 79 315 1.0 3.0 0.00 0.00 0.00 85 1016.0
20180718050617 79 344 0.0 3.0 0.00 0.00 0.00 85 1016.0
20180718045117 79 0 0.0 0.0 0.00 0.80 0.00 85 1016.1
20180718044117 79 0 0.0 0.0 0.00 0.80 0.00 85 1016.1
20180718043617 79 37 0.0 0.0 0.00 0.80 0.00 85 1016.1
20180718043117 79 21 0.0 3.0 0.00 0.80 0.00 85 1016.1
20180718042617 79 0 0.0 0.0 0.00 0.80 0.00 85 1016.1
20180718042117 79 0 0.0 0.0 0.00 0.80 0.00 85 1016.3
20180718041616 79 0 0.0 0.0 0.00 0.80 0.00 85 1016.3
20180718041117 79 0 0.0 0.0 0.00 0.80 0.00 85 1016.3
20180718040617 79 0 0.0 0.0 0.00 0.80 0.00 85 1016.4
20180718040117 79 0 0.0 0.0 0.00 0.80 0.00 85 1016.4